Torna al catalogo

FENGYUN 1C DEB

AttivoPO
NORAD 30630·DEBRIS·🇨🇳 China

Lanciato May 10, 1999 da Taiyuan Satellite Launch Center

Loading…

Prossimi Passaggi (prossime 24 ore)

TLE

AggiornatoSource: Space-Track

Epoca: Sep 14, 2026, 08:27 UTC

1 30630U 99025ANM 26257.35260509  .00000955  00000-0  44134-3 0  9997
2 30630  99.1832  86.9686 0026015   9.8404 113.2000 14.23273825 11307

Traccia FENGYUN 1C DEB in tempo reale con AllMySat

Download on the App Store